sat.trackr.live / text

‹ back to catalog

ONEWEB-0243

NORAD 48774 · 2021-045H

PAYLOAD ACTIVE UNKNOWN

§ Identity

Operator
Country
UK
Launch date
2021-05-28
Launch site
VOSTO
Launch vehicle
Mass (kg)
RCS (m²)

Purposes: comms

External: N2YO · Heavens-Above · Gunter

§ Orbital elements

Epoch: 2026-05-25T00:28:08.547168Z

Period
109.46 min
Inclination
87.8991°
Eccentricity
0.0001851
Mean motion
13.15547389 rev/d
Perigee alt
1,200.4 km
Apogee alt
1,203.2 km
Semi-major
7,579.9 km
B*
2.2626e-4
RAAN
263.8355°
Arg perigee
83.5020°
Mean anomaly
276.6321°
Rev number
24,131

§ Raw data

ONEWEB-02431 48774U 21045H   26145.01954337  .00000098  00000+0  22626-3 0  99992 48774  87.8991 263.8355 0001851  83.5020 276.6321 13.15547389241313

JSON: /api/v1/satellites/48774 · /tle

For live sub-satellite position, see the globe view (requires WebGL).

§ Visibility from observer

Set your observer location to see the next 7 days of passes ≥ 10°. The values pass through the URL so the page stays shareable.

No JS? Fill the form by hand. The geolocation button needs JavaScript.